Location: Hopewell Observatory
(38.8698°N, 77.6988°W)
Time: 00:30:52
(UTC-04:00)

CZ-2C R/B - Pass Details

Date: 26 May 2018
Orbit: 785 x 870 km, 98.4° (Epoch: 24 June)

Event Time Altitude Azimuth Distance (km) Brightness Sun altitude
Rises 22:48:25 0° 23° (NNE) 3,466 6.3 -21.6°
Reaches altitude 10° 22:51:04 10° 32° (NNE) 2,522 5.4 -21.9°
Maximum altitude 22:56:07 34° 96° (E) 1,404 3.5 -22.4°
Enters shadow 22:56:07 34° 96° (E) 1,404 3.5 -22.4°
